Weather History for Novato, CA

Change the Weather History Date:

Friday, October 25, 2013

  Actual Average (KAPC) Record (KAPC)
Temperature  
Mean Temperature 56 °F 57 °F  
Max Temperature 73 °F 72 °F 94 °F (2003)
Min Temperature 39 °F 42 °F 36 °F (2006)
Degree Days  
Heating Degree Days 9    
Month to date heating degree days  
Since 1 July heating degree days  
Cooling Degree Days 0    
Month to date cooling degree days  
Year to date cooling degree days  
Growing Degree Days 6 (Base 50)    
Moisture  
Dew Point 46 °F    
Average Humidity 83    
Maximum Humidity 100    
Minimum Humidity 41    
Precipitation  
Precipitation 0.00 in - 2.01 in (1979)
Month to date precipitation  
Year to date precipitation  
Since 1 July precipitation  
Sea Level Pressure  
Sea Level Pressure 30.14 in    
Wind  
Wind Speed 2 mph (North)    
Max Wind Speed 13 mph    
Max Gust Speed -    
Visibility 7 miles    
Events Fog , Rain    
T = Trace of Precipitation, MM = Missing Value Source: NWS Daily Summary

Daily Weather History Graph

Daily Weather History Graph

Search for Another Location

Airport:

Trip Planner

Search our weather history database for the weather conditions in past years. The results will help you decide how hot, cold, wet, or windy it might be!

Date:

Astronomy

Oct. 25, 2013 Rise Set
Actual Time 7:29 AM PDT 6:18 PM PDT
Civil Twilight 7:02 AM PDT 6:45 PM PDT
Nautical Twilight 6:31 AM PDT 7:16 PM PDT
Astronomical Twilight 6:00 AM PDT 7:47 PM PDT
Moon 11:44 PM PDT (10/25) 1:11 PM PDT (10/25)
Length of Visible Light 11h 43m
Length of Day
10h 49m
Waning Gibbous, 61% of the Moon is Illuminated
Oct 25
Waning Gibbous
Oct 26
Last Quarter
Nov 3
New
Nov 9
First Quarter
Nov 17
Full

Hourly Weather History & Observations

Time (PDT) Temp. Windchill Dew Point Humidity Pressure Visibility Wind Dir Wind Speed Gust Speed Precip Events Conditions
12:15 AM 44.6 °F - 44.6 °F 100% 30.12 in 9.0 mi Calm Calm - N/A   Clear
12:35 AM 46.4 °F - 46.4 °F 100% 30.12 in 10.0 mi Calm Calm - N/A   Clear
12:55 AM 44.6 °F - 44.6 °F 100% 30.12 in 10.0 mi Calm Calm - N/A   Clear
1:15 AM 44.6 °F - 44.6 °F 100% 30.12 in 10.0 mi Calm Calm - N/A   Clear
1:35 AM 46.4 °F - 46.4 °F 100% 30.13 in 10.0 mi Calm Calm - N/A   Clear
1:55 AM 42.8 °F - 42.8 °F 100% 30.13 in 7.0 mi Calm Calm - N/A   Clear
2:15 AM 46.4 °F - 46.4 °F 100% 30.13 in 10.0 mi Calm Calm - N/A   Clear
2:35 AM 44.6 °F - 44.6 °F 100% 30.14 in 7.0 mi Calm Calm - N/A   Clear
2:55 AM 42.8 °F - 42.8 °F 100% 30.14 in 2.5 mi Calm Calm - N/A   Clear
3:15 AM 42.8 °F - 42.8 °F 100% 30.14 in 7.0 mi Calm Calm - N/A   Clear
3:35 AM 44.6 °F - 44.6 °F 100% 30.14 in 6.0 mi Calm Calm - N/A   Clear
3:55 AM 42.8 °F - 42.8 °F 100% 30.14 in 4.0 mi Calm Calm - N/A   Clear
4:15 AM 41.0 °F - 41.0 °F 100% 30.14 in 0.2 mi Calm Calm - N/A Fog Fog
4:35 AM 39.2 °F - 39.2 °F 100% 30.13 in 0.2 mi Calm Calm - N/A Fog Fog
4:55 AM 41.0 °F - 41.0 °F 100% 30.14 in 8.0 mi Calm Calm - N/A   Clear
5:15 AM 39.2 °F - 39.2 °F 100% 30.14 in 8.0 mi Calm Calm - N/A   Clear
5:35 AM 39.2 °F - 39.2 °F 100% 30.15 in 2.0 mi Calm Calm - N/A   Mostly Cloudy
5:55 AM 39.2 °F - 39.2 °F 100% 30.15 in 0.2 mi Calm Calm - N/A Fog Fog
6:15 AM 41.0 °F - 41.0 °F 100% 30.15 in 0.5 mi Calm Calm - N/A Fog Fog
6:35 AM 41.0 °F - 41.0 °F 100% 30.16 in 0.2 mi Calm Calm - N/A Fog Fog
6:55 AM 41.0 °F - 41.0 °F 100% 30.16 in 0.2 mi Calm Calm - N/A Fog Fog
7:15 AM 41.0 °F - 41.0 °F 100% 30.16 in 0.2 mi Calm Calm - N/A Fog Fog
7:35 AM 39.2 °F 37.0 °F 39.2 °F 100% 30.17 in 0.2 mi NNE 3.5 mph - N/A Fog Fog
7:55 AM 41.0 °F 39.0 °F 41.0 °F 100% 30.17 in 0.2 mi NNW 3.5 mph - N/A Fog Fog
8:15 AM 41.0 °F - 41.0 °F 100% 30.17 in 0.2 mi Calm Calm - N/A Fog Fog
8:35 AM 42.8 °F 41.1 °F 42.8 °F 100% 30.18 in 0.2 mi NNW 3.5 mph - N/A Fog Fog
8:55 AM 42.8 °F - 42.8 °F 100% 30.19 in 0.2 mi Calm Calm - N/A Fog Fog
9:15 AM 44.6 °F - 44.6 °F 100% 30.19 in 0.2 mi Calm Calm - N/A Fog Fog
9:35 AM 46.4 °F 45.2 °F 46.4 °F 100% 30.19 in 0.5 mi North 3.5 mph - N/A Fog Fog
9:55 AM 48.2 °F - 48.2 °F 100% 30.19 in 4.0 mi North 5.8 mph - N/A   Scattered Clouds
10:15 AM 48.2 °F - 48.2 °F 100% 30.19 in 8.0 mi NNE 6.9 mph - N/A   Clear
10:35 AM 50.0 °F - 50.0 °F 100% 30.18 in 10.0 mi North 4.6 mph - N/A   Clear
10:55 AM 53.6 °F - 50.0 °F 88% 30.19 in 10.0 mi NNE 5.8 mph - N/A   Clear
11:15 AM 55.4 °F - 50.0 °F 82% 30.19 in 10.0 mi NNE 5.8 mph - N/A   Clear
11:35 AM 57.2 °F - 50.0 °F 77% 30.18 in 10.0 mi NNE 5.8 mph - N/A   Clear
11:55 AM 59.0 °F - 50.0 °F 72% 30.18 in 10.0 mi North 4.6 mph - N/A   Clear
12:15 PM 62.6 °F - 50.0 °F 63% 30.18 in 10.0 mi NE 4.6 mph - N/A   Clear
12:35 PM 64.4 °F - 50.0 °F 59% 30.17 in 10.0 mi NE 8.1 mph - N/A   Clear
12:55 PM 66.2 °F - 50.0 °F 56% 30.16 in 10.0 mi NNE 8.1 mph - N/A   Clear
1:15 PM 66.2 °F - 50.0 °F 56% 30.15 in 10.0 mi NE 5.8 mph - N/A   Clear
1:35 PM 68.0 °F - 50.0 °F 52% 30.14 in 10.0 mi ENE 5.8 mph - N/A   Clear
1:55 PM 69.8 °F - 50.0 °F 49% 30.13 in 10.0 mi NNE 5.8 mph - N/A   Clear
2:15 PM 71.6 °F - 50.0 °F 46% 30.12 in 10.0 mi NE 8.1 mph - N/A   Clear
2:35 PM 73.4 °F - 48.2 °F 41% 30.11 in 10.0 mi NNE 8.1 mph - N/A   Clear
2:55 PM 73.4 °F - 48.2 °F 41% 30.11 in 10.0 mi WSW 5.8 mph - N/A   Clear
3:15 PM 71.6 °F - 48.2 °F 43% 30.10 in 10.0 mi NNW 11.5 mph - N/A   Clear
3:35 PM 68.0 °F - 48.2 °F 49% 30.11 in 10.0 mi NNW 11.5 mph - N/A   Clear
3:55 PM 66.2 °F - 48.2 °F 52% 30.10 in 10.0 mi NNW 12.7 mph - N/A   Clear
4:15 PM 66.2 °F - 48.2 °F 52% 30.10 in 10.0 mi North 6.9 mph - N/A   Clear
4:35 PM 66.2 °F - 48.2 °F 52% 30.10 in 10.0 mi Calm Calm - N/A   Clear
4:55 PM 66.2 °F - 48.2 °F 52% 30.10 in 10.0 mi North 5.8 mph - N/A   Clear
5:15 PM 66.2 °F - 48.2 °F 52% 30.10 in 10.0 mi Calm Calm - N/A   Clear
5:35 PM 68.0 °F - 48.2 °F 49% 30.09 in 10.0 mi North 8.1 mph - N/A   Clear
5:55 PM 64.4 °F - 48.2 °F 56% 30.09 in 10.0 mi North 4.6 mph - N/A   Clear
6:15 PM 59.0 °F - 48.2 °F 67% 30.09 in 10.0 mi North 6.9 mph - N/A   Clear
6:35 PM 59.0 °F - 46.4 °F 63% 30.10 in 10.0 mi Calm Calm - N/A Rain Light Rain
6:55 PM 55.4 °F - 46.4 °F 72% 30.10 in 10.0 mi North 4.6 mph - N/A Rain Light Rain
7:15 PM 51.8 °F - 46.4 °F 82% 30.10 in 10.0 mi North 5.8 mph - N/A Rain Light Rain
7:35 PM 53.6 °F - 46.4 °F 77% 30.10 in 10.0 mi North 3.5 mph - N/A Rain Light Rain
7:55 PM 53.6 °F - 46.4 °F 77% 30.10 in 10.0 mi Calm Calm - N/A Rain Light Rain
8:15 PM 50.0 °F - 46.4 °F 87% 30.10 in 10.0 mi NW 3.5 mph - N/A Rain Light Rain
8:35 PM 50.0 °F - 46.4 °F 87% 30.11 in 10.0 mi North 5.8 mph - N/A Rain Light Rain
8:55 PM 48.2 °F - 44.6 °F 87% 30.11 in 10.0 mi North 3.5 mph - N/A Rain Light Rain
9:15 PM 48.2 °F - 46.4 °F 93% 30.11 in 10.0 mi North 4.6 mph - N/A Rain Light Rain
9:35 PM 46.4 °F 44.3 °F 46.4 °F 100% 30.11 in 10.0 mi North 4.6 mph - N/A   Clear
9:55 PM 48.2 °F - 46.4 °F 93% 30.12 in 10.0 mi Calm Calm - N/A   Clear
10:15 PM 50.0 °F - 46.4 °F 87% 30.13 in 10.0 mi Calm Calm - N/A Rain Light Rain
10:35 PM 50.0 °F - 46.4 °F 87% 30.12 in 10.0 mi Calm Calm - N/A Rain Light Rain
10:55 PM 48.2 °F - 46.4 °F 93% 30.13 in 10.0 mi Calm Calm - N/A   Clear
11:15 PM 48.2 °F - 46.4 °F 93% 30.13 in 10.0 mi Calm Calm - N/A   Clear
11:35 PM 48.2 °F - 46.4 °F 93% 30.13 in 10.0 mi Calm Calm - N/A   Clear
11:55 PM 48.2 °F - 46.4 °F 93% 30.13 in 10.0 mi Calm Calm - N/A   Clear